Weather in Bali

Indonesia     8°22′09″S   115°09′57″E
temp.,
°C
wind,
m/s
gust,
m/s
humid.,
%
clouds,
%
prec.,
mm/h
press.,
hPa
HPBL,
m
7 may, fri
fri723:00+20s129896 0.7 1013134
02:00+19s2398100 0.7 1012143
05:00+18s2398100 0.0 1012152
08:00+20sse229397 0.0 1013204
11:00+25sse016177 0.0 1013985
14:00+27w025618 0.1 10101343
17:00+23sse017362 0.1 1010607
20:00+18sse1197100 0.1 101343
8 may, sat
sat823:00+17s1196100 0.0 101438
02:00+17sse119599 0.0 101337
05:00+16sse1195100 0.0 101332
08:00+20s128383 0.0 1014208
11:00+26wnw0147100 0.0 10121276
14:00+27wnw115061 0.0 10091610
17:00+22ssw017795 0.0 1010462
20:00+18s1296100 0.1 101363
9 may, sun
sun923:00+17sse2295100 0.0 101350
02:00+18s239699 0.0 1011140
05:00+18s239684 0.1 1011148
08:00+21sse138870 0.3 1013328
11:00+23sse128055 0.4 1012654
14:00+23sw018086 1.1 1009633
17:00+21ssw1197100 0.8 1010229
20:00+20s129795 1.1 1012142
10 may, mon
mon1023:00+19sse1198100 0.1 101360
02:00+19s129770 0.1 1011117
05:00+19s1197100 0.0 101157
08:00+21sse119136 0.1 1013179
11:00+24ne007681 0.9 1011790
14:00+23sw0088100 5.4 1010445
17:00+21s1195100 6.3 1010187
20:00+20s239855 7.3 1012186
11 may, tue
tue1123:00+20s239863 1.2 1013182
02:00+19s239885 1.4 1012175
05:00+19s239887 0.0 1012184
08:00+20sse2393100 0.1 1014272
11:00+25sse126270 0.0 10121001
14:00+27n015898 0.1 10091220
17:00+22e017923 0.1 1010295
20:00+18s119721 0.1 101237